Location: Bougoura
(13.1861°N, 5.0773°W)
Time: 01:08:07
(UTC+00:00)

Cosmos 1538 Rocket - Pass Details

Date: 18 September 2020
Orbit: 751 x 792 km, 74.0° (Epoch: 21 October)

Event Time Altitude Azimuth Distance (km) Brightness Sun altitude
Rises 18:36:58 0° 349° (N) 3,254 7.4 -5.2°
Reaches altitude 10° 18:39:20 10° 350° (N) 2,331 6.7 -5.8°
Maximum altitude 18:44:39 78° 77° (ENE) 804 4.0 -7.1°
Drops below altitude 10° 18:50:00 10° 163° (SSE) 2,348 6.3 -8.4°
Sets 18:52:23 0° 165° (SSE) 3,278 7.1 -9.0°
